Weather Roundup
Issued by NWS Springfield, MO

Home | Current Version | Previous Version | Text Only | Print | Product List | Glossary On
Versions: 1 2 3 4 5 6 7 8 9 10 11 12 13 14 15 16 17 18 19 20 21 22 23 24 25 26 27 28 29 30 31 32 33 34 35 36 37 38 39 40 41 42 43 44 45 46 47 48 49 50
000
NZUS99 KSGF 260407
HRRSGF

HOURLY WEATHER
NATIONAL WEATHER SERVICE SPRINGFIELD MO
1000 PM CST THU DEC 25 2014

......SGF CWA......

CITY           SKY/WX    TMP DP  RH WIND       PRES   REMARKS
SPRINGFIELD    CLOUDY    46  29  51 S20G25    29.89R
JOPLIN         MOCLDY    49  29  46 S20       29.88R
WEST PLAINS    PTCLDY    42  34  73 S12       30.00S
ROLLA          CLOUDY    43  32  65 S18       29.92R
OSAGE BEACH    CLOUDY    46  28  49 S14       29.92R
BRANSON        PTCLDY    45  32  61 S7        29.96R

......SURROUNDING SGF CWA......

CITY           SKY/WX    TMP DP  RH WIND       PRES   REMARKS
CHANUTE        MOCLDY    50  31  48 S20G25    29.82R
PARSONS        MOCLDY    50  31  48 S13G23    29.85R
COFFEYVILLE    MOCLDY    51  30  44 S20G26    29.85R
EMPORIA        FAIR      48  29  47 S18G26    29.73R
GROVE OK       MOCLDY    52  32  46 S14G22    29.90S
ROGERS AR      MOCLDY    47  32  56 S17       29.93R
SILOAM SPRINGS MOCLDY    46  28  49 S12       29.94S
HARRISON AR    PTCLDY    47  32  56 S12G23    29.96R
NEAR YELLVILLE PTCLDY    48  30  49 S10G20    29.98S

......KANSAS AND MISSOURI......

CITY           SKY/WX    TMP DP  RH WIND       PRES   REMARKS
KANSAS CTY INT PTCLDY    48  30  49 S18       29.77R
DOWNTOWN KC    MOCLDY    51  29  42 S18       29.79R
COLUMBIA       PTCLDY    45  31  58 S14       29.90R
SEDALIA        MOCLDY    47  30  51 S15       29.87R
ST JOSEPH      CLEAR     44  31  60 S12       29.76R
ST LOUIS       MOCLDY    45  36  70 SE13G18   29.99S
SPIRIT OF STL  CLOUDY    44  34  67 S8        29.97S
KIRKSVILLE     PTCLDY    39  31  72 S10       29.85R WCI  32
WICHITA        CLOUDY    49  28  44 S17       29.72F
TOPEKA         PTCLDY    49  30  48 S9        29.75R
OLATHE         CLOUDY    49  30  48 S13G22    29.79R

......TENNESSEE......

CITY           SKY/WX    TMP DP  RH WIND       PRES   REMARKS
MEMPHIS        PTCLDY    44  35  70 S8        30.15R
NASHVILLE      CLEAR     37  33  85 CALM      30.21R

......ARKANSAS.......

CITY           SKY/WX    TMP DP  RH WIND       PRES   REMARKS
FAYETTEVILLE   PTCLDY    46  32  58 S13G21    29.94R
FT SMITH       MOCLDY    49  32  52 E7        29.98R
LITTLE ROCK    PTCLDY    46  35  65 S10       30.09R

......OKLAHOMA.......

CITY           SKY/WX    TMP DP  RH WIND       PRES   REMARKS
TULSA          MOCLDY    52  29  41 S15       29.86R
PONCA CITY     CLOUDY    52  28  39 S15G24    29.79S
MCALESTER      PTCLDY    53  31  42 S12G20    29.93R
OKLAHOMA CITY  MOCLDY    50  28  42 S22G29    29.79F

......IOWA............

CITY           SKY/WX    TMP DP  RH WIND       PRES   REMARKS
DES MOINES     CLOUDY    42  30  62 SE12      29.77S
QUAD CITIES    PTCLDY    40  33  76 S12       29.91S WCI  33

......ILLINOIS........

CITY           SKY/WX    TMP DP  RH WIND       PRES   REMARKS
QUINCY         PTCLDY    44  31  60 S13       29.92R
CHICAGO        CLOUDY    39  33  79 S18       30.00R WCI  30




USA.gov is the U.S. government's official web portal to all federal, state and local government web resources and services.